FW6285 Weather Reports


time (UTC)temp
C
wind
direction
speed
KPH
gust
KPH
rain 1hr
cm
rain 24hr
cm
rain mn
cm
humidity
%
barometer
mb
20260506161244 16 219 4.8 8.0 0.00 0.00 0.00 75 1020.8
20260506160744 16 220 4.8 8.0 0.00 0.00 0.00 75 1020.8
20260506160245 16 219 4.8 8.0 0.00 0.00 0.00 75 1020.8
20260506155747 16 218 4.8 8.0 0.00 0.00 0.00 75 1020.7
20260506154742 16 190 4.8 8.0 0.00 0.00 0.00 75 1020.8
20260506153739 16 207 4.8 8.0 0.00 0.00 0.00 76 1020.8
20260506153237 16 196 4.8 8.0 0.00 0.00 0.00 76 1020.7
20260506152737 16 196 4.8 8.0 0.00 0.00 0.00 76 1020.8
20260506151738 16 150 4.8 11.3 0.00 0.00 0.00 77 1020.8
20260506151236 16 173 1.6 8.0 0.00 0.00 0.00 77 1020.8
20260506150241 16 174 3.2 8.0 0.00 0.00 0.00 78 1020.7
20260506145736 16 179 0.0 6.4 0.00 0.00 0.00 78 1020.7
20260506145235 16 172 0.0 3.2 0.00 0.00 0.00 78 1020.7
20260506144736 16 172 1.6 8.0 0.00 0.00 0.00 78 1020.7
20260506143735 16 172 1.6 6.4 0.00 0.00 0.00 78 1020.7
20260506143235 16 170 0.0 6.4 0.00 0.00 0.00 78 1020.8
20260506142736 16 171 0.0 0.0 0.00 0.00 0.00 78 1020.6
20260506142236 16 171 0.0 0.0 0.00 0.00 0.00 78 1020.7
20260506141736 16 171 0.0 0.0 0.00 0.00 0.00 78 1020.7
20260506141237 16 171 0.0 0.0 0.00 0.00 0.00 78 1020.5
20260506140737 16 171 0.0 0.0 0.00 0.00 0.00 79 1020.5
20260506140236 16 171 0.0 0.0 0.00 0.00 0.00 79 1020.4
20260506135737 16 171 0.0 0.0 0.00 0.00 0.00 79 1020.3
20260506135233 16 240 0.0 0.0 0.00 0.00 0.00 79 1020.3
20260506134732 16 240 0.0 0.0 0.00 0.00 0.00 79 1020.3
20260506134232 16 240 0.0 0.0 0.00 0.00 0.00 79 1020.1
20260506133726 16 240 0.0 0.0 0.00 0.00 0.00 79 1020.1
20260506133219 16 240 0.0 0.0 0.00 0.00 0.00 79 1020.1
20260506132714 16 240 0.0 0.0 0.00 0.00 0.00 79 1020.1
20260506131715 16 240 0.0 0.0 0.00 0.00 0.00 79 1020.0
20260506131215 16 240 0.0 0.0 0.00 0.00 0.00 79 1019.9
20260506130714 16 240 0.0 0.0 0.00 0.00 0.00 79 1019.9
20260506130214 16 240 0.0 0.0 0.00 0.00 0.00 78 1019.8
20260506125210 16 240 0.0 0.0 0.00 0.00 0.00 78 1019.8
20260506124709 16 241 0.0 0.0 0.00 0.00 0.00 78 1019.6
20260506124205 16 241 0.0 0.0 0.00 0.00 0.00 78 1019.6
20260506123703 16 241 0.0 0.0 0.00 0.00 0.00 78 1019.6
20260506123202 16 241 0.0 0.0 0.00 0.00 0.00 78 1019.6
20260506122701 16 241 0.0 4.8 0.00 0.00 0.00 78 1019.5
20260506122159 16 241 3.2 6.4 0.00 0.00 0.00 78 1019.6
20260506121657 16 241 4.8 6.4 0.00 0.00 0.00 77 1019.6
20260506121155 16 241 4.8 6.4 0.00 0.00 0.00 77 1019.5
20260506120655 16 241 4.8 6.4 0.00 0.00 0.00 77 1019.6
20260506120154 16 241 4.8 8.0 0.00 0.00 0.00 77 1019.5
20260506115653 16 241 1.6 8.0 0.00 0.00 0.00 76 1019.5
20260506115154 16 128 0.0 0.0 0.00 0.00 0.00 76 1019.4
20260506114654 16 113 0.0 0.0 0.00 0.00 0.00 75 1019.4
20260506114148 16 113 0.0 0.0 0.00 0.00 0.00 75 1019.3
20260506113643 16 113 0.0 0.0 0.00 0.00 0.00 75 1019.3
20260506113136 16 113 0.0 0.0 0.00 0.00 0.00 75 1019.2
20260506112630 16 113 0.0 0.0 0.00 0.00 0.00 75 1019.2
20260506112123 16 113 0.0 0.0 0.00 0.00 0.00 75 1019.2
20260506111619 16 113 0.0 0.0 0.00 0.00 0.00 75 1019.0
20260506111112 16 113 0.0 0.0 0.00 0.00 0.00 75 1019.0
20260506110606 16 113 0.0 0.0 0.00 0.00 0.00 75 1019.0
20260506105554 16 113 0.0 0.0 0.00 0.00 0.00 75 1018.9
20260506104543 16 113 0.0 0.0 0.00 0.00 0.00 75 1019.0
20260506103023 16 139 0.0 0.0 0.00 0.00 0.00 75 1018.9
20260506102517 16 139 0.0 0.0 0.00 0.00 0.00 75 1018.9
20260506101506 16 139 0.0 0.0 0.00 0.00 0.00 75 1018.8
20260506100959 16 139 0.0 0.0 0.00 0.00 0.00 75 1018.9
20260506100454 16 139 0.0 0.0 0.00 0.00 0.00 75 1018.8
20260506094935 16 139 0.0 0.0 0.00 0.00 0.00 75 1018.8
20260506093924 16 139 0.0 0.0 0.00 0.00 0.00 75 1018.9
20260506093418 16 139 0.0 0.0 0.00 0.00 0.00 75 1018.8
20260506092912 16 139 0.0 0.0 0.00 0.00 0.00 75 1018.8
20260506092406 16 139 0.0 0.0 0.00 0.00 0.00 75 1018.8
20260506091900 16 139 0.0 0.0 0.00 0.00 0.00 75 1018.8
20260506091354 16 139 0.0 0.0 0.00 0.00 0.00 75 1018.7
20260506090848 16 139 0.0 0.0 0.00 0.00 0.00 75 1018.6
20260506090342 16 139 0.0 0.0 0.00 0.00 0.00 75 1018.7
20260506085836 16 139 0.0 0.0 0.00 0.00 0.00 74 1018.7
20260506084318 16 139 0.0 0.0 0.00 0.00 0.00 74 1018.7
20260506083313 16 139 0.0 0.0 0.00 0.00 0.00 74 1018.7
20260506082813 16 139 0.0 0.0 0.00 0.00 0.00 74 1018.7
20260506082314 16 139 0.0 0.0 0.00 0.00 0.00 74 1018.8
20260506081814 16 139 0.0 0.0 0.00 0.00 0.00 73 1018.7
20260506081312 16 139 0.0 0.0 0.00 0.00 0.00 73 1018.7
20260506080813 16 139 0.0 0.0 0.00 0.00 0.00 73 1018.7
20260506073303 17 139 0.0 0.0 0.00 0.00 0.00 72 1018.5
20260506072802 17 139 0.0 0.0 0.00 0.00 0.00 72 1018.5
20260506072300 17 139 0.0 0.0 0.00 0.03 0.00 72 1018.5
20260506071756 17 139 0.0 0.0 0.00 0.08 0.00 71 1018.4
20260506071256 17 139 0.0 0.0 0.00 0.10 0.00 71 1018.4
20260506070753 17 139 0.0 0.0 0.00 0.10 0.00 71 1018.3
20260506070251 17 139 0.0 0.0 0.00 0.10 0.00 71 1018.3
20260506062211 17 139 3.2 4.8 0.00 0.15 0.10 69 1018.0
20260506061159 17 139 1.6 6.4 0.00 0.18 0.10 69 1017.9
20260506060653 17 139 3.2 6.4 0.00 0.18 0.10 69 1017.8
20260506060147 17 139 3.2 6.4 0.00 0.20 0.10 69 1017.7
20260506045023 17 76 0.0 0.0 0.00 0.20 0.10 68 1017.1
20260506044517 17 76 0.0 0.0 0.00 0.20 0.10 68 1017.1
20260506044017 17 76 0.0 0.0 0.00 0.20 0.10 68 1017.0
20260506043518 17 76 0.0 0.0 0.00 0.20 0.10 68 1016.9
20260506043016 17 76 0.0 0.0 0.00 0.23 0.10 68 1016.9
20260506042011 17 76 0.0 0.0 0.00 0.23 0.10 68 1016.8
20260506041510 17 76 0.0 0.0 0.00 0.23 0.10 68 1016.7
20260506041007 17 76 0.0 0.0 0.00 0.23 0.10 68 1016.6
20260506040505 17 76 0.0 0.0 0.00 0.23 0.10 68 1016.5
20260506040005 17 76 1.6 4.8 0.00 0.25 0.10 68 1016.6
20260506035003 17 76 3.2 4.8 0.00 0.30 0.10 68 1016.3
20260506034502 17 78 1.6 4.8 0.00 0.30 0.10 68 1016.3
20260506034001 17 78 3.2 9.7 0.00 0.30 0.10 68 1016.2
20260506032959 17 80 6.4 11.3 0.00 0.30 0.10 68 1015.9
20260506032458 17 100 6.4 11.3 0.00 0.30 0.10 68 1015.8
20260506031958 17 88 6.4 11.3 0.00 0.30 0.10 67 1015.8
20260506031457 17 93 6.4 11.3 0.00 0.30 0.10 67 1015.7
20260506030956 17 97 6.4 11.3 0.00 0.30 0.10 67 1015.7
20260506025950 17 96 6.4 11.3 0.00 0.30 0.10 67 1015.6
20260506024941 17 105 6.4 12.9 0.00 0.30 0.10 66 1015.5
20260506023941 17 103 8.0 14.5 0.00 0.30 0.10 66 1015.4
20260506023441 17 116 8.0 14.5 0.00 0.30 0.10 65 1015.4
20260506022941 17 118 6.4 12.9 0.00 0.30 0.10 65 1015.3
20260506022440 18 171 8.0 12.9 0.00 0.30 0.10 65 1015.2
20260506021938 18 140 8.0 12.9 0.00 0.30 0.10 65 1015.2
20260506021438 18 148 8.0 12.9 0.00 0.30 0.10 65 1015.2
20260506020939 18 139 8.0 12.9 0.00 0.30 0.10 65 1015.1
20260506020438 18 141 8.0 12.9 0.00 0.30 0.10 65 1015.1
20260506015939 18 136 6.4 12.9 0.00 0.30 0.10 64 1015.2
20260506015440 18 152 8.0 12.9 0.00 0.30 0.10 64 1015.1
20260506014935 18 148 8.0 14.5 0.00 0.30 0.10 64 1015.1
20260506014436 18 135 6.4 14.5 0.00 0.30 0.10 63 1015.1
20260506013936 18 157 6.4 11.3 0.00 0.30 0.10 64 1015.0
20260506013436 18 145 8.0 14.5 0.00 0.30 0.10 63 1015.0
20260506012935 18 156 8.0 14.5 0.00 0.30 0.10 63 1015.0
20260506012435 18 137 8.0 12.9 0.00 0.30 0.10 64 1015.0
20260506011936 18 165 8.0 16.1 0.00 0.30 0.10 63 1014.9
20260506011435 18 134 9.7 16.1 0.00 0.30 0.10 63 1014.9
20260506005936 18 142 11.3 16.1 0.00 0.30 0.10 63 1014.7
20260506005435 18 132 9.7 16.1 0.00 0.30 0.10 62 1014.6
20260506004935 18 158 9.7 14.5 0.00 0.30 0.10 62 1014.6
20260506003936 18 157 11.3 16.1 0.00 0.30 0.10 61 1014.7
20260506003435 18 153 11.3 16.1 0.00 0.30 0.10 61 1014.8
20260506002935 18 157 11.3 16.1 0.00 0.30 0.10 61 1014.7
20260506002434 18 129 9.7 16.1 0.00 0.30 0.10 60 1014.8
20260506001933 18 159 11.3 17.7 0.00 0.30 0.10 60 1014.7
20260506000928 19 138 8.0 14.5 0.00 0.30 0.10 60 1014.5
20260506000430 18 144 9.7 14.5 0.00 0.30 0.10 61 1014.5
20260505235930 18 123 9.7 16.1 0.00 0.30 0.10 60 1014.5
20260505235429 19 133 8.0 16.1 0.00 0.30 0.10 60 1014.5
20260505234428 19 141 9.7 17.7 0.00 0.30 0.10 61 1014.5
20260505233928 18 158 11.3 17.7 0.00 0.30 0.10 61 1014.4
20260505233424 19 110 12.9 17.7 0.00 0.30 0.10 60 1014.5
20260505232422 19 143 11.3 16.1 0.00 0.30 0.10 61 1014.4
20260505231922 19 113 9.7 16.1 0.00 0.30 0.10 60 1014.5
20260505231423 19 155 9.7 17.7 0.00 0.30 0.10 60 1014.5
20260505230922 19 135 11.3 17.7 0.00 0.30 0.10 60 1014.7
20260505230420 19 130 9.7 16.1 0.00 0.30 0.10 60 1014.6
20260505225918 19 118 9.7 16.1 0.00 0.30 0.10 60 1014.6
20260505224921 19 114 11.3 16.1 0.00 0.30 0.10 59 1014.7
20260505224420 19 102 9.7 16.1 0.00 0.30 0.10 59 1014.7
20260505223913 19 121 8.0 14.5 0.00 0.30 0.10 58 1014.7
20260505222900 20 175 6.4 11.3 0.00 0.30 0.10 58 1014.8
20260505222354 19 133 6.4 11.3 0.00 0.30 0.10 58 1014.9
20260505221849 19 184 6.4 14.5 0.00 0.30 0.10 58 1014.9
20260505221342 20 103 6.4 14.5 0.00 0.30 0.10 57 1014.9
20260505220836 19 119 4.8 12.9 0.00 0.30 0.10 57 1015.0
20260505220330 19 171 3.2 12.9 0.00 0.30 0.10 58 1015.1
20260505215824 19 267 3.2 9.7 0.00 0.30 0.10 59 1015.1
20260505214812 19 140 4.8 14.5 0.00 0.30 0.10 59 1015.1
20260505214306 19 179 6.4 14.5 0.00 0.30 0.10 59 1015.0
20260505213800 19 211 4.8 14.5 0.00 0.30 0.10 58 1015.1
20260505213254 19 207 4.8 11.3 0.00 0.30 0.10 59 1015.1
20260505211737 19 202 6.4 12.9 0.00 0.30 0.10 60 1015.3
20260505210219 19 200 8.0 16.1 0.00 0.30 0.10 58 1015.3
20260505205207 19 218 6.4 12.9 0.00 0.30 0.10 59 1015.3
20260505204154 19 221 8.0 12.9 0.00 0.30 0.10 59 1015.3
20260505203648 19 176 8.0 12.9 0.00 0.30 0.10 58 1015.4
20260505203142 19 198 4.8 12.9 0.00 0.30 0.10 59 1015.3
20260505202636 19 61 4.8 12.9 0.00 0.30 0.10 61 1015.4
20260505202130 18 98 3.2 11.3 0.00 0.30 0.10 63 1015.5
20260505200612 17 227 3.2 9.7 0.00 0.30 0.10 64 1015.7
20260505200107 17 238 4.8 11.3 0.00 0.30 0.10 64 1015.6
20260505195600 17 228 4.8 11.3 0.00 0.30 0.10 65 1015.7
20260505195054 17 254 4.8 11.3 0.00 0.30 0.10 64 1015.7
20260505194549 17 265 4.8 14.5 0.00 0.30 0.10 64 1015.7
20260505193030 17 228 6.4 16.1 0.00 0.30 0.10 66 1015.7
20260505192018 17 253 4.8 11.3 0.00 0.30 0.10 67 1015.8
20260505191512 17 312 4.8 9.7 0.00 0.30 0.10 67 1015.8
20260505191007 17 316 4.8 11.3 0.00 0.30 0.10 67 1015.9
20260505190500 16 259 4.8 11.3 0.00 0.30 0.10 67 1015.9
20260505185955 16 236 3.2 8.0 0.00 0.30 0.10 68 1015.8
20260505185449 16 174 4.8 9.7 0.00 0.30 0.10 70 1015.8
20260505184942 15 190 4.8 9.7 0.00 0.30 0.10 73 1015.8
20260505184436 15 210 4.8 8.0 0.00 0.30 0.10 74 1015.9
20260505183930 15 200 4.8 8.0 0.00 0.30 0.10 74 1015.9
20260505183424 15 259 3.2 6.4 0.00 0.30 0.10 75 1015.9
20260505182919 15 355 3.2 6.4 0.00 0.30 0.10 76 1015.9
20260505182412 15 355 1.6 4.8 0.00 0.30 0.10 76 1015.9
20260505181906 15 355 3.2 8.0 0.00 0.30 0.10 76 1016.0
20260505181401 15 351 4.8 8.0 0.00 0.30 0.10 77 1016.0
20260505180349 15 202 3.2 6.4 0.00 0.30 0.10 78 1016.1
20260505175844 15 194 1.6 6.4 0.00 0.30 0.10 79 1016.0
20260505174844 14 179 3.2 8.0 0.00 0.30 0.10 80 1016.0
20260505174345 14 174 1.6 8.0 0.00 0.30 0.10 81 1016.0
20260505173843 14 178 3.2 4.8 0.00 0.30 0.10 81 1015.9
20260505173344 14 178 3.2 8.0 0.00 0.33 0.10 82 1015.9
20260505172842 13 186 1.6 8.0 0.00 0.33 0.10 83 1015.9
20260505172343 13 236 3.2 8.0 0.00 0.33 0.10 83 1015.8
20260505171843 13 236 3.2 8.0 0.00 0.33 0.10 83 1015.9
20260505171340 13 229 3.2 11.3 0.00 0.33 0.10 83 1015.8
20260505170841 13 227 4.8 11.3 0.00 0.33 0.10 83 1015.8
20260505165340 13 211 3.2 6.4 0.00 0.33 0.10 84 1016.0
20260505164840 13 211 3.2 6.4 0.00 0.33 0.10 84 1015.9
20260505164340 13 211 3.2 6.4 0.00 0.33 0.10 84 1015.9
20260505163841 13 211 3.2 8.0 0.00 0.33 0.10 84 1015.9
20260505162840 13 211 3.2 6.4 0.00 0.36 0.10 84 1015.9
20260505161839 12 199 3.2 6.4 0.00 0.36 0.10 84 1015.8